Weather in Disuq

Egypt     31°08′02″N   30°38′40″E
temp.,
°C
wind,
m/s
gust,
m/s
humid.,
%
clouds,
%
prec.,
mm/h
press.,
hPa
HPBL,
m
26 june, sun
sun2623:00+23wnw23680 0.0 101179
02:00+22wnw34700 0.0 1010103
05:00+21wnw23740 0.0 101144
08:00+28nnw34470 0.0 1011817
11:00+33nnw56290 0.0 10111419
14:00+33nnw78290 0.0 10101363
17:00+31nnw68370 0.0 1010870
20:00+25nw36670 0.0 1011232
27 june, mon
mon2723:00+24nw37740 0.0 1011203
02:00+24nw36790 0.0 1010175
05:00+23wnw35850 0.0 1010118
08:00+29nw56460 0.0 1010937
11:00+33nw77360 0.0 10101474
14:00+33nw89310 0.0 10091487
17:00+30nw78450 0.0 1009975
20:00+24wnw47720 0.0 1010412
28 june, tue
tue2823:00+23wnw37770 0.0 1009245
02:00+22wnw35810 0.0 1008122
05:00+22wnw22830 0.0 100846
08:00+28nw33510 0.0 1008877
11:00+33nnw54350 0.0 10081640
14:00+33nnw65340 0.0 10071650
17:00+30nw66450 0.0 10071051
20:00+25nw47790 0.0 1008400
29 june, wed
wed2923:00+23wnw23850 0.0 100991
02:00+22wnw22870 0.0 100851
05:00+21w22890 0.0 100835
08:00+27w22560 0.0 1008829
11:00+33nnw43330 0.0 10071871
14:00+33nnw76340 0.0 10061639
17:00+29nnw66480 0.0 10071059
20:00+25nnw24760 0.0 1008159
30 june, thu
thu3023:00+23nw12840 0.0 100830
02:00+22wnw11900 0.0 100720
05:00+22wnw11930 0.0 100722
08:00+28nw11590 0.0 1008829
11:00+32n53390 0.0 10081686
14:00+33n65330 0.0 10071401
17:00+30nnw66440 0.0 1007930
20:00+24nnw35730 0.0 1008149